When you browse on this site, cookies collect data to enhance your experience and personalize the content and advertising you see.
Visit our Privacy Policy to learn more. By continuing to use the site, you agree to this use of cookies and data.
  • în România
  • Lista ţărilor
  • Pe 7 zile
  • Temperatura apei
  • Meteo pe hartă
  • Widget-uri
  • user-avatar
    Intrare

    Meteo pe oră la Tomaszów Mazowiecki

    Astăzi, 28 Ianuarie, Marţi

    Timp Temperatura Precipitaţii Vânt Presiune Umiditate
    00:00 -1°C° 0 mm 4 m/s 742 mmHg 83%
    01:00 -1°C° 0 mm 4 m/s 741 mmHg 83%
    02:00 -1°C° 0 mm 4 m/s 741 mmHg 82%
    03:00 -1°C° 0 mm 4 m/s 740 mmHg 81%
    04:00 -1°C° 0 mm 5 m/s 740 mmHg 80%
    05:00 0°C° 0 mm 5 m/s 739 mmHg 79%
    06:00 0°C° 0 mm 5 m/s 739 mmHg 79%
    07:00 0°C° 0 mm 5 m/s 738 mmHg 76%
    08:00 +1°C° 0 mm 5 m/s 738 mmHg 74%
    09:00 +1°C° 0 mm 5 m/s 737 mmHg 72%
    10:00 +2°C° 0 mm 6 m/s 737 mmHg 69%
    11:00 +2°C° 0.2 mm 6 m/s 736 mmHg 73%
    12:00 +2°C° 0.2 mm 6 m/s 736 mmHg 76%
    13:00 +2°C° 0 mm 6 m/s 735 mmHg 75%
    14:00 +2°C° 0 mm 5 m/s 734 mmHg 76%
    15:00 +1°C° 0 mm 5 m/s 734 mmHg 77%
    16:00 +1°C° 0 mm 5 m/s 733 mmHg 77%
    17:00 +1°C° 0 mm 5 m/s 733 mmHg 79%
    18:00 +1°C° 0 mm 6 m/s 733 mmHg 82%
    19:00 +1°C° 0 mm 6 m/s 733 mmHg 84%
    20:00 +1°C° 0 mm 6 m/s 733 mmHg 82%
    21:00 +1°C° 0 mm 6 m/s 733 mmHg 80%
    22:00 +1°C° 0 mm 6 m/s 733 mmHg 78%
    23:00 +1°C° 0 mm 5 m/s 733 mmHg 78%

    Mâine, 29 Ianuarie, Miercuri

    Timp Temperatura Precipitaţii Vânt Presiune Umiditate
    00:00 0°C° 0 mm 5 m/s 733 mmHg 78%
    01:00 0°C° 0 mm 5 m/s 734 mmHg 79%
    02:00 0°C° 0 mm 5 m/s 734 mmHg 79%
    03:00 -1°C° 0 mm 5 m/s 733 mmHg 79%
    04:00 -2°C° 0 mm 6 m/s 733 mmHg 80%
    05:00 -2°C° 0 mm 6 m/s 734 mmHg 79%
    06:00 -2°C° 0 mm 6 m/s 734 mmHg 78%
    07:00 -2°C° 0 mm 6 m/s 735 mmHg 77%
    08:00 -2°C° 0.1 mm 7 m/s 735 mmHg 82%
    09:00 -2°C° 0.1 mm 7 m/s 734 mmHg 87%
    10:00 -2°C° 0.1 mm 8 m/s 734 mmHg 92%
    11:00 -2°C° 0.3 mm 8 m/s 735 mmHg 91%
    12:00 -1°C° 0.3 mm 9 m/s 735 mmHg 90%
    13:00 -1°C° 0.3 mm 9 m/s 735 mmHg 88%
    14:00 -1°C° 0.1 mm 8 m/s 736 mmHg 87%
    15:00 -1°C° 0.1 mm 8 m/s 736 mmHg 86%
    16:00 -1°C° 0.1 mm 7 m/s 736 mmHg 85%
    17:00 -1°C° 0.1 mm 7 m/s 736 mmHg 88%
    18:00 -1°C° 0.1 mm 7 m/s 737 mmHg 91%
    19:00 -1°C° 0.1 mm 7 m/s 738 mmHg 94%
    20:00 -1°C° 0 mm 7 m/s 738 mmHg 90%
    21:00 -1°C° 0 mm 7 m/s 738 mmHg 86%
    22:00 -1°C° 0 mm 7 m/s 738 mmHg 82%
    23:00 -1°C° 0 mm 7 m/s 738 mmHg 86%

    Poimâine, 30 Ianuarie, Joi

    Timp Temperatura Precipitaţii Vânt Presiune Umiditate
    00:00 -1°C° 0 mm 7 m/s 739 mmHg 89%
    01:00 -1°C° 0 mm 7 m/s 739 mmHg 92%
    02:00 -1°C° 0.2 mm 7 m/s 740 mmHg 92%
    03:00 -1°C° 0.2 mm 7 m/s 740 mmHg 91%
    04:00 -1°C° 0.2 mm 7 m/s 740 mmHg 90%
    05:00 -1°C° 0 mm 7 m/s 741 mmHg 88%
    06:00 -1°C° 0 mm 7 m/s 741 mmHg 87%
    07:00 -1°C° 0 mm 7 m/s 741 mmHg 85%
    08:00 -1°C° 0 mm 7 m/s 741 mmHg 82%
    09:00 -1°C° 0 mm 7 m/s 742 mmHg 78%
    10:00 -1°C° 0 mm 7 m/s 742 mmHg 75%
    11:00 -1°C° 0 mm 7 m/s 741 mmHg 77%
    12:00 0°C° 0 mm 7 m/s 741 mmHg 80%
    13:00 0°C° 0 mm 8 m/s 740 mmHg 82%
    14:00 0°C° 0.2 mm 7 m/s 740 mmHg 86%
    15:00 0°C° 0.2 mm 7 m/s 740 mmHg 90%
    16:00 0°C° 0.2 mm 7 m/s 739 mmHg 95%
    17:00 +2°C° 0.5 mm 7 m/s 739 mmHg 94%
    18:00 +2°C° 0.5 mm 7 m/s 739 mmHg 93%
    19:00 +3°C° 0.5 mm 7 m/s 739 mmHg 92%
    20:00 +3°C° 0.6 mm 7 m/s 738 mmHg 91%
    21:00 +3°C° 0.6 mm 7 m/s 738 mmHg 90%
    22:00 +3°C° 0.6 mm 7 m/s 738 mmHg 89%
    23:00 +3°C° 0 mm 7 m/s 738 mmHg 86%

    31 Ianuarie, Vineri

    Timp Temperatura Precipitaţii Vânt Presiune Umiditate
    00:00 +3°C° 0 mm 7 m/s 737 mmHg 84%
    01:00 +2°C° 0 mm 6 m/s 737 mmHg 82%
    02:00 +2°C° 0.1 mm 6 m/s 737 mmHg 83%
    03:00 +2°C° 0.1 mm 6 m/s 736 mmHg 84%
    04:00 +2°C° 0.1 mm 6 m/s 735 mmHg 84%
    05:00 +2°C° 0.9 mm 6 m/s 735 mmHg 87%
    06:00 +2°C° 0.9 mm 5 m/s 734 mmHg 90%
    07:00 +2°C° 0.9 mm 5 m/s 734 mmHg 93%
    08:00 +3°C° 0.8 mm 6 m/s 734 mmHg 92%
    09:00 +4°C° 0.8 mm 6 m/s 734 mmHg 91%
    10:00 +4°C° 0.8 mm 7 m/s 734 mmHg 90%
    11:00 +5°C° 0.2 mm 7 m/s 735 mmHg 89%
    12:00 +5°C° 0.2 mm 7 m/s 736 mmHg 87%
    13:00 +5°C° 0.2 mm 7 m/s 737 mmHg 86%
    14:00 +5°C° 0.1 mm 7 m/s 738 mmHg 85%
    15:00 +5°C° 0.1 mm 6 m/s 738 mmHg 84%
    16:00 +5°C° 0.1 mm 6 m/s 739 mmHg 83%
    17:00 +6°C° 0 mm 5 m/s 740 mmHg 84%
    18:00 +5°C° 0 mm 5 m/s 740 mmHg 86%
    19:00 +5°C° 0 mm 4 m/s 741 mmHg 87%
    20:00 +5°C° 0 mm 4 m/s 741 mmHg 88%
    21:00 +5°C° 0 mm 4 m/s 741 mmHg 89%
    22:00 +4°C° 0 mm 4 m/s 741 mmHg 90%
    23:00 +4°C° 0 mm 4 m/s 741 mmHg 90%

    1 Februarie, Sâmbătă

    Timp Temperatura Precipitaţii Vânt Presiune Umiditate
    00:00 +4°C° 0 mm 4 m/s 741 mmHg 89%
    01:00 +5°C° 0 mm 4 m/s 741 mmHg 89%
    02:00 +5°C° 0 mm 4 m/s 741 mmHg 89%
    03:00 +5°C° 0 mm 4 m/s 741 mmHg 88%
    04:00 +6°C° 0 mm 4 m/s 741 mmHg 88%
    05:00 +6°C° 0 mm 5 m/s 741 mmHg 88%
    06:00 +6°C° 0 mm 5 m/s 740 mmHg 89%
    07:00 +6°C° 0 mm 5 m/s 740 mmHg 89%
    08:00 +7°C° 0 mm 5 m/s 740 mmHg 89%
    09:00 +7°C° 0 mm 5 m/s 740 mmHg 89%
    10:00 +7°C° 0 mm 6 m/s 740 mmHg 89%
    11:00 +8°C° 0 mm 5 m/s 740 mmHg 86%
    12:00 +8°C° 0 mm 5 m/s 739 mmHg 84%
    13:00 +9°C° 0 mm 5 m/s 739 mmHg 82%
    14:00 +9°C° 0.1 mm 5 m/s 738 mmHg 83%
    15:00 +9°C° 0.1 mm 6 m/s 738 mmHg 84%
    16:00 +8°C° 0.1 mm 6 m/s 737 mmHg 85%
    17:00 +8°C° 0.3 mm 6 m/s 737 mmHg 86%
    18:00 +8°C° 0.3 mm 6 m/s 736 mmHg 86%
    19:00 +8°C° 0.3 mm 6 m/s 736 mmHg 86%
    20:00 +8°C° 0.4 mm 7 m/s 735 mmHg 87%
    21:00 +9°C° 0.4 mm 7 m/s 735 mmHg 88%
    22:00 +9°C° 0.4 mm 7 m/s 734 mmHg 89%
    23:00 +9°C° 0.3 mm 8 m/s 734 mmHg 88%

    2 Februarie, Duminică

    Timp Temperatura Precipitaţii Vânt Presiune Umiditate
    00:00 +9°C° 0.3 mm 8 m/s 733 mmHg 87%
    01:00 +9°C° 0.3 mm 8 m/s 733 mmHg 86%
    02:00 +7°C° 1.4 mm 9 m/s 734 mmHg 85%
    03:00 +7°C° 1.4 mm 10 m/s 734 mmHg 85%
    04:00 +6°C° 1.4 mm 10 m/s 735 mmHg 85%
    05:00 +5°C° 0.5 mm 10 m/s 736 mmHg 81%
    06:00 +5°C° 0.5 mm 10 m/s 738 mmHg 76%
    07:00 +3°C° 0.5 mm 9 m/s 739 mmHg 72%
    08:00 +3°C° 0 mm 9 m/s 740 mmHg 75%
    09:00 +3°C° 0 mm 9 m/s 741 mmHg 78%
    10:00 +3°C° 0 mm 9 m/s 742 mmHg 81%
    11:00 +3°C° 0.1 mm 9 m/s 742 mmHg 81%
    12:00 +3°C° 0.1 mm 9 m/s 742 mmHg 82%
    13:00 +3°C° 0.1 mm 9 m/s 742 mmHg 82%
    14:00 +3°C° 0.1 mm 9 m/s 742 mmHg 81%
    15:00 +3°C° 0.1 mm 9 m/s 743 mmHg 81%
    16:00 +3°C° 0.1 mm 9 m/s 743 mmHg 80%
    17:00 +4°C° 0 mm 8 m/s 743 mmHg 79%
    18:00 +4°C° 0 mm 8 m/s 744 mmHg 78%
    19:00 +2°C° 0 mm 8 m/s 744 mmHg 77%
    20:00 +3°C° 0 mm 7 m/s 744 mmHg 76%
    21:00 +3°C° 0 mm 6 m/s 744 mmHg 76%
    22:00 +3°C° 0 mm 6 m/s 744 mmHg 76%
    23:00 +2°C° 0 mm 6 m/s 744 mmHg 79%
    Arată mai mult